Ouarzazate, Morocco

10:35 PM WET on November 18, 2017 (GMT +0000)
Ouarzazate

Weather History for GMMZ - February, 2014

Change the Weather History Date:

Friday, February 14, 2014

  Actual Average Record
Temperature  
Mean Temperature 58 °F -  
Max Temperature 73 °F 69 °F - ()
Min Temperature 42 °F 42 °F - ()
Degree Days  
Heating Degree Days 8    
Growing Degree Days 8 (Base 50)    
Moisture  
Dew Point 14 °F    
Average Humidity 17    
Maximum Humidity 31    
Minimum Humidity 4    
Precipitation  
Precipitation 0.00 in 0.01 in - ()
Sea Level Pressure  
Sea Level Pressure 30.22 in    
Wind  
Wind Speed 3 mph ()    
Max Wind Speed 12 mph    
Max Gust Speed -    
Visibility 4.1 miles    
Events      
T = Trace of Precipitation, MM = Missing Value Source: Averaged Metar Reports

Daily Weather History Graph

Daily Weather History Graph

Search for Another Location

Airport or City:

Trip Planner

Search our weather history database for the weather conditions in past years. The results will help you decide how hot, cold, wet, or windy it might be!

Date:

Astronomy

Feb. 14, 2014 Rise Set
Actual Time 7:09 AM WET 6:14 PM WET
Civil Twilight 6:44 AM WET 6:39 PM WET
Nautical Twilight 6:16 AM WET 7:07 PM WET
Astronomical Twilight 5:48 AM WET 7:35 PM WET
Moon 6:02 PM WET (2/14) 6:30 AM WET (2/14)
Length of Visible Light 11h 54m
Length of Day
11h 04m
Full, 100% of the Moon is Illuminated
Feb 14
Full
Feb 14
Full
Feb 22
Last Quarter
Mar 1
New
Mar 8
First Quarter

Hourly Weather History & Observations

Time (WET) Temp. Dew Point Humidity Pressure Visibility Wind Dir Wind Speed Gust Speed Precip Events Conditions
12:00 AM 58 °F 15 °F 9%  in 6 mi SSE 5.8 mph - -  
12:00 AM 59.0 °F 15.8 °F 19% 30.30 in - SSE 5.8 mph - N/A   Clear
1:00 AM 50.0 °F 14.0 °F 24% 30.30 in - Variable 1.2 mph - N/A   Clear
2:00 AM 51.8 °F 15.8 °F 24% 30.30 in - Variable 2.3 mph - N/A   Clear
3:00 AM 48 °F 14 °F 14%  in 6 mi Calm Calm - -  
3:00 AM 48.2 °F 14.0 °F 25% 30.27 in - Calm Calm - N/A   Clear
4:00 AM 50.0 °F 15.8 °F 26% 30.27 in - Variable 1.2 mph - N/A   Clear
5:00 AM 46.4 °F 14.0 °F 27% 30.27 in - Calm Calm - N/A   Clear
6:00 AM 45 °F 14 °F 16%  in 6 mi Calm Calm - -  
6:00 AM 44.6 °F 14.0 °F 29% 30.30 in - Calm Calm - N/A   Clear
7:00 AM 42.8 °F 14.0 °F 31% 30.30 in - Variable 1.2 mph - N/A   Clear
8:00 AM 42.8 °F 14.0 °F 31% 30.30 in - Variable 2.3 mph - N/A   Clear
9:00 AM 47 °F 17 °F 18%  in 4 mi Calm Calm - -  
9:00 AM 48.2 °F 17.6 °F 30% 30.33 in 3.7 mi Calm Calm - N/A   Unknown
10:00 AM 53.6 °F 17.6 °F 24% 30.33 in 3.7 mi Calm Calm - N/A   Unknown
11:00 AM 59.0 °F - N/A% 30.33 in 3.7 mi Calm Calm - N/A   Unknown
12:00 PM 62 °F 16 °F 8%  in 4 mi North 1.2 mph - -  
12:00 PM 62.6 °F 15.8 °F 16% 30.27 in 3.7 mi Variable 1.2 mph - N/A   Unknown
1:00 PM 66.2 °F 15.8 °F 14% 30.24 in 3.7 mi Variable 1.2 mph - N/A   Unknown
2:00 PM 69.8 °F 17.6 °F 14% 30.18 in 3.7 mi Variable 3.5 mph - N/A   Unknown
3:00 PM 72 °F 13 °F 4%  in 4 mi South 5.8 mph - -  
3:00 PM 71.6 °F 12.2 °F 10% 30.15 in 3.7 mi South 5.8 mph - N/A   Unknown
4:00 PM 73.4 °F 14.0 °F 10% 30.12 in 3.7 mi South 5.8 mph - N/A   Unknown
5:00 PM 71.6 °F 10.4 °F 9% 30.12 in 3.7 mi SSE 10.4 mph - N/A   Unknown
6:00 PM 69 °F 10 °F 4%  in 4 mi SE 10.4 mph - -  
6:00 PM 68.0 °F 10.4 °F 11% 30.12 in 3.7 mi SE 9.2 mph - N/A   Unknown
7:00 PM 66.2 °F 10.4 °F 11% 30.12 in 3.7 mi ESE 11.5 mph - N/A   Unknown
8:00 PM 64.4 °F 10.4 °F 12% 30.12 in 3.7 mi East 4.6 mph - N/A   Unknown
9:00 PM 62 °F 13 °F 6%  in 4 mi Calm Calm - -  
9:00 PM 62.6 °F 10.4 °F 13% 30.12 in 3.7 mi Calm Calm - N/A   Unknown
10:00 PM 60.8 °F 14.0 °F 16% 30.12 in 3.7 mi Variable 1.2 mph - N/A   Unknown
11:00 PM 59.0 °F 12.2 °F 16% 30.12 in 3.7 mi Variable 1.2 mph - N/A   Unknown